VK4RM-13 Weather Reports


time (UTC)temp
F
wind
direction
speed
knots
gust
knots
rain 1hr
in
rain 24hr
in
rain mn
in
humidity
%
barometer
mb
20260504223639 72 327 0.0 0.0 0.00 0.01 0.01 87 996.4
20260504222639 71 15 0.0 0.0 0.00 0.01 0.01 93 996.6
20260504221639 70 34 0.0 0.0 0.00 0.01 0.01 97 996.5
20260504220639 70 34 0.0 0.0 0.00 0.01 0.01 97 996.5
20260504215639 68 34 0.0 0.0 0.00 0.01 0.01 97 996.4
20260504214639 68 34 0.0 0.0 0.00 0.01 0.01 97 996.4
20260504213639 66 34 0.0 0.0 0.00 0.01 0.01 97 996.5
20260504212639 65 34 0.0 0.0 0.00 0.01 0.01 97 996.3
20260504211639 63 34 0.0 0.0 0.00 0.01 0.01 97 996.4
20260504183640 61 34 0.0 0.0 0.00 0.01 0.01 95 994.6
20260504182640 61 34 0.0 0.0 0.00 0.01 0.01 95 994.5
20260504181640 61 34 0.0 0.0 0.00 0.01 0.01 95 994.7
20260504180640 61 34 0.0 0.0 0.00 0.01 0.01 95 994.7
20260504175640 61 34 0.0 0.0 0.01 0.01 0.01 95 994.6
20260504174640 61 34 0.0 0.0 0.01 0.01 0.01 95 994.6
20260504173640 61 34 0.0 0.0 0.01 0.01 0.01 95 994.7
20260504172640 61 34 0.0 0.0 0.01 0.01 0.01 95 994.7
20260504171640 61 34 0.0 0.0 0.01 0.01 0.01 95 994.7
20260504170640 61 34 0.0 0.0 0.01 0.01 0.01 94 994.8
20260504150640 62 34 0.0 0.0 0.00 0.00 0.00 94 995.6
20260504140640 62 34 0.0 0.0 0.00 0.00 0.00 93 995.9
20260504110640 64 34 0.0 0.0 0.00 0.00 0.00 92 996.8
20260504081641 68 34 0.0 0.0 0.00 0.11 0.00 88 995.2
20260504080641 69 34 0.0 0.0 0.00 0.11 0.00 88 995.2
20260504050641 81 336 1.7 5.2 0.00 0.24 0.18 65 993.9
20260504045641 82 281 0.9 5.2 0.00 0.26 0.18 64 993.8
20260504044641 82 285 1.7 5.2 0.00 0.26 0.18 63 993.8
20260504043641 82 355 0.9 5.2 0.00 0.26 0.18 61 993.9
20260504042641 82 296 1.7 5.2 0.00 0.26 0.18 66 993.9
20260504041641 80 0 0.0 0.0 0.00 0.26 0.18 67 993.9
20260504040641 81 0 0.0 4.3 0.00 0.26 0.18 66 993.9
20260504035641 82 312 1.7 5.2 0.00 0.27 0.18 65 993.8
20260504034641 82 294 0.9 4.3 0.00 0.27 0.18 66 993.9
20260504033641 82 5 0.9 6.1 0.00 0.27 0.18 66 993.9
20260504032641 82 334 1.7 6.1 0.00 0.27 0.18 63 994.0
20260504031641 81 30 0.0 3.5 0.00 0.27 0.18 66 994.2
20260504030641 81 342 0.0 0.0 0.00 0.27 0.18 66 994.4
20260504025641 82 350 0.9 1.7 0.00 0.32 0.18 62 994.5
20260504024641 83 355 1.7 5.2 0.00 0.32 0.18 62 994.7
20260504023641 82 286 0.9 5.2 0.00 0.32 0.18 64 995.0
20260504022641 80 34 0.9 1.7 0.00 0.32 0.18 70 995.1
20260504021641 80 5 0.9 1.7 0.00 0.32 0.18 70 995.2
20260504020641 79 16 0.0 1.7 0.00 0.32 0.18 69 995.4
20260504014641 79 332 0.0 1.7 0.00 0.32 0.18 69 995.8
20260504013642 80 305 0.9 5.2 0.00 0.32 0.18 69 996.1
20260504012642 79 40 0.9 1.7 0.00 0.32 0.18 72 996.2
20260504011642 79 13 1.7 4.3 0.00 0.32 0.18 70 996.3
20260504010642 79 342 0.0 0.9 0.00 0.32 0.18 72 996.4
20260504005642 79 350 0.0 5.2 0.00 0.32 0.18 70 996.5
20260504004642 79 348 0.9 4.3 0.00 0.32 0.18 71 996.7
20260504003642 79 310 1.7 7.0 0.00 0.32 0.18 72 996.8
20260504002642 79 13 2.6 8.7 0.00 0.32 0.18 71 996.8
20260504001642 79 31 0.9 5.2 0.00 0.32 0.18 72 996.8
20260504000642 78 290 0.9 3.5 0.00 0.32 0.18 75 996.9
20260503235642 77 9 0.9 4.3 0.00 0.32 0.18 76 996.9
20260503234642 76 350 1.7 4.3 0.00 0.32 0.18 77 997.0
20260503233642 76 339 1.7 5.2 0.00 0.32 0.18 77 997.0
20260503232642 75 22 0.9 6.1 0.00 0.32 0.18 79 997.0
20260503231642 75 327 0.9 6.1 0.00 0.32 0.18 79 996.9
20260503230642 74 355 0.9 5.2 0.00 0.32 0.18 80 996.8
20260503225642 74 343 1.7 7.0 0.00 0.32 0.18 80 996.8
20260503224642 74 335 0.9 5.2 0.00 0.32 0.18 81 996.8